ランキン彗星

C/2020 R6 ( Rankin )

English version
Home page
Updated on January 20, 2022

---------------------------------------------------------------------

・ プロフィール

発見日 2020年9月15日
発見光度 20.2等
発見者 David Rankin (Mount Lemmon Survey)

・ 軌道要素

Epoch 2022 Jan. 21.0 TT = JDT 2459600.5                                         
T 2019 Sept.  9.58664 TT                                Rudenko                 
q   3.1313119            (2000.0)            P               Q                  
z  +0.0028073      Peri.  272.00452     +0.06057104     +0.97597621             
 +/-0.0000041      Node    12.17781     +0.28902549     +0.18354210             
e   0.9912096      Incl.   82.81168     -0.95540327     +0.11739989             
From 58 observations 2019 May 14-2020 Oct. 21, mean residual 0".6.              

・ 光度変化

        m1 = 10.5 + 5 logΔ + 10.0 log r

---------------------------------------------------------------------

軌道要素はM.P.E.C. 2021-Y10に掲載されたものです。
光度グラフはComet for Windowsで作成したものです。

---------------------------------------------------------------------

Copyright(C) Seiichi Yoshida (comet@aerith.net). All rights reserved.